TimeEST,TemperatureF,Dew PointF,Humidity,Sea Level PressureIn,VisibilityMPH,Wind Direction,Wind SpeedMPH,Gust SpeedMPH,PrecipitationIn,Events,Conditions,WindDirDegrees,DateUTC
12:53 AM,61.0,54.0,78,30.21,10.0,North,6.9,-,N/A,,Clear,350,2013-01-23 05:53:00
1:53 AM,60.1,55.0,83,30.20,10.0,North,3.5,-,N/A,,Clear,350,2013-01-23 06:53:00
2:53 AM,62.1,55.9,80,30.21,10.0,Calm,Calm,-,N/A,,Clear,0,2013-01-23 07:53:00
3:53 AM,62.1,55.9,80,30.19,10.0,NNE,6.9,-,N/A,,Clear,20,2013-01-23 08:53:00
4:53 AM,61.0,55.9,83,30.19,10.0,NNE,4.6,-,N/A,,Clear,20,2013-01-23 09:53:00
5:53 AM,59.0,57.0,93,30.22,10.0,Calm,Calm,-,N/A,,Clear,0,2013-01-23 10:53:00
6:53 AM,60.1,57.0,90,30.23,10.0,Calm,Calm,-,N/A,,Clear,0,2013-01-23 11:53:00
7:53 AM,62.1,57.9,86,30.26,10.0,NNW,3.5,-,N/A,,Partly Cloudy,340,2013-01-23 12:53:00
8:53 AM,64.0,57.0,78,30.27,10.0,North,8.1,-,N/A,,Overcast,350,2013-01-23 13:53:00
9:53 AM,69.1,57.0,65,30.29,10.0,NNE,8.1,-,N/A,,Partly Cloudy,20,2013-01-23 14:53:00
10:53 AM,73.0,55.0,53,30.30,10.0,North,8.1,-,N/A,,Clear,10,2013-01-23 15:53:00
11:53 AM,72.0,53.1,51,30.27,10.0,NNE,13.8,18.4,N/A,,Mostly Cloudy,30,2013-01-23 16:53:00
12:53 PM,73.0,51.1,46,30.25,10.0,NE,13.8,20.7,N/A,,Scattered Clouds,50,2013-01-23 17:53:00
1:53 PM,73.9,52.0,46,30.24,10.0,ENE,13.8,-,N/A,,Scattered Clouds,60,2013-01-23 18:53:00
2:53 PM,73.9,51.1,45,30.23,10.0,East,9.2,18.4,N/A,,Mostly Cloudy,90,2013-01-23 19:53:00
3:53 PM,73.9,52.0,46,30.23,10.0,East,10.4,-,N/A,,Partly Cloudy,90,2013-01-23 20:53:00
4:53 PM,72.0,50.0,46,30.23,10.0,ENE,10.4,-,N/A,,Partly Cloudy,70,2013-01-23 21:53:00
5:53 PM,70.0,51.1,51,30.25,10.0,ENE,10.4,-,N/A,,Clear,60,2013-01-23 22:53:00
6:53 PM,66.0,51.1,59,30.25,10.0,ENE,4.6,-,N/A,,Clear,60,2013-01-23 23:53:00
7:53 PM,62.1,51.1,67,30.26,10.0,NE,5.8,-,N/A,,Clear,50,2013-01-24 00:53:00
8:53 PM,62.1,52.0,70,30.27,10.0,Calm,Calm,-,N/A,,Clear,0,2013-01-24 01:53:00
9:53 PM,60.1,52.0,75,30.28,10.0,Calm,Calm,-,N/A,,Clear,0,2013-01-24 02:53:00
10:53 PM,57.0,52.0,83,30.28,10.0,Calm,Calm,-,N/A,,Clear,0,2013-01-24 03:53:00
11:53 PM,61.0,55.9,83,30.27,10.0,North,6.9,-,N/A,,Clear,10,2013-01-24 04:53:00